TimeEST,TemperatureF,Dew PointF,Humidity,Sea Level PressureIn,VisibilityMPH,Wind Direction,Wind SpeedMPH,Gust SpeedMPH,PrecipitationIn,Events,Conditions,WindDirDegrees,DateUTC
12:54 AM,46.9,28.0,48,30.07,-9999.0,North,-9999.0,-,N/A,,Unknown,0,2012-11-04 04:54:00
1:54 AM,45.0,28.9,53,30.06,-9999.0,North,-9999.0,-,N/A,,Unknown,0,2012-11-04 05:54:00
1:54 AM,45.0,28.9,53,30.06,-9999.0,North,-9999.0,-,N/A,,Unknown,0,2012-11-04 06:54:00
2:54 AM,43.0,28.9,58,30.05,-9999.0,North,-9999.0,-,N/A,,Unknown,0,2012-11-04 07:54:00
3:54 AM,42.1,28.0,58,30.05,-9999.0,North,-9999.0,-,N/A,,Unknown,0,2012-11-04 08:54:00
4:54 AM,43.0,28.0,56,30.05,-9999.0,North,-9999.0,-,N/A,,Unknown,0,2012-11-04 09:54:00
5:54 AM,43.0,28.0,56,30.06,-9999.0,North,-9999.0,-,N/A,,Unknown,0,2012-11-04 10:54:00
6:54 AM,44.1,28.0,53,30.07,-9999.0,North,-9999.0,-,N/A,,Unknown,0,2012-11-04 11:54:00
7:54 AM,45.0,28.9,53,30.08,-9999.0,North,-9999.0,-,N/A,,Unknown,0,2012-11-04 12:54:00
8:54 AM,46.9,30.0,52,30.08,-9999.0,North,-9999.0,-,N/A,,Unknown,0,2012-11-04 13:54:00
9:54 AM,46.9,28.9,50,30.07,-9999.0,North,-9999.0,-,N/A,,Unknown,0,2012-11-04 14:54:00
10:54 AM,48.0,30.0,50,30.06,-9999.0,North,-9999.0,-,N/A,,Unknown,0,2012-11-04 15:54:00
11:54 AM,48.9,28.9,46,30.04,-9999.0,North,-9999.0,-,N/A,,Unknown,0,2012-11-04 16:54:00
12:54 PM,50.0,28.0,43,30.03,-9999.0,North,-9999.0,-,N/A,,Unknown,0,2012-11-04 17:54:00
1:54 PM,52.0,28.9,41,30.01,-9999.0,North,-9999.0,-,N/A,,Unknown,0,2012-11-04 18:54:00
2:54 PM,52.0,27.0,38,30.00,-9999.0,North,-9999.0,-,N/A,,Unknown,0,2012-11-04 19:54:00
3:54 PM,52.0,28.9,41,30.01,-9999.0,North,-9999.0,-,N/A,,Unknown,0,2012-11-04 20:54:00
4:54 PM,50.0,28.9,44,30.01,-9999.0,North,-9999.0,-,N/A,,Unknown,0,2012-11-04 21:54:00
5:54 PM,48.0,30.0,50,30.03,-9999.0,North,-9999.0,-,N/A,,Unknown,0,2012-11-04 22:54:00
6:54 PM,46.9,28.9,50,30.05,-9999.0,North,-9999.0,-,N/A,,Unknown,0,2012-11-04 23:54:00
7:54 PM,46.0,28.0,50,30.05,-9999.0,North,-9999.0,-,N/A,,Unknown,0,2012-11-05 00:54:00
8:54 PM,45.0,28.0,52,30.05,-9999.0,North,-9999.0,-,N/A,,Unknown,0,2012-11-05 01:54:00
9:54 PM,44.1,28.0,53,30.06,-9999.0,North,-9999.0,-,N/A,,Unknown,0,2012-11-05 02:54:00
10:54 PM,45.0,28.0,52,30.04,-9999.0,North,-9999.0,-,N/A,,Unknown,0,2012-11-05 03:54:00